Location: Peebles
(55.6412°N, 3.1714°W)
Time: 21:51:56
(UTC+01:00)

USA 281 - Pass Details

Date: 03 February 2022
Orbit: 1070 x 1089 km, 106.0° (Epoch: 25 March)

Event Time Altitude Azimuth Distance (km) Brightness Sun altitude
Rises 03:40:53 0° 30° (NNE) 3,907 6.8 -36.4°
Reaches altitude 10° 03:43:27 10° 26° (NNE) 2,948 6.0 -36.0°
Enters shadow 03:47:54 41° 1° (N) 1,533 4.1 -35.5°
